This is the latest recevied weather packets stored in our database for station/object KN4MGS. If no packets are shown the sender has not sent any weather packets the latest 10 day(s).
| Time | Temp. | Humidity | Pressure | Rain* | Wind** | Luminosity | Snow |
|---|---|---|---|---|---|---|---|
| 1778017285 | 26.67° C | 43% | 1017.3 hPa | 0 mm | - | 261 W/m² | - |
| 1778016983 | 26.67° C | 43% | 1017.3 hPa | 0 mm | - | 372 W/m² | - |
| 1778016679 | 26.67° C | 42% | 1017.3 hPa | 0 mm | - | 138 W/m² | - |
| 1778016375 | 26.11° C | 44% | 1017.2 hPa | 0 mm | - | 417 W/m² | - |
| 1778016073 | 26.67° C | 44% | 1017.2 hPa | 0 mm | - | 133 W/m² | - |
| 1778015770 | 26.67° C | 44% | 1017.1 hPa | 0 mm | - | 135 W/m² | - |
| 1778015467 | 27.22° C | 41% | 1017.3 hPa | 0 mm | - | 405 W/m² | - |
| 1778015164 | 27.22° C | 43% | 1017.2 hPa | 0 mm | - | 191 W/m² | - |
| 1778014861 | 27.22° C | 42% | 1017.3 hPa | 0 mm | - | 345 W/m² | - |
| 1778014559 | 27.22° C | 43% | 1017.3 hPa | 0 mm | - | 533 W/m² | - |
| 1778014256 | 27.22° C | 44% | 1017.5 hPa | 0 mm | - | 556 W/m² | - |
| 1778013953 | 27.22° C | 42% | 1017.5 hPa | 0 mm | - | 589 W/m² | - |
| 1778013650 | 26.67° C | 43% | 1017.5 hPa | 0 mm | - | 425 W/m² | - |
| 1778013347 | 26.67° C | 43% | 1017.6 hPa | 0 mm | - | 442 W/m² | - |
| 1778013044 | 26.67° C | 42% | 1017.7 hPa | 0 mm | - | 349 W/m² | - |
| 1778012740 | 27.22° C | 44% | 1017.5 hPa | 0 mm | - | 242 W/m² | - |
| 1778012436 | 26.67° C | 44% | 1017.6 hPa | 0 mm | - | 419 W/m² | - |
| 1778012133 | 26.67° C | 42% | 1018 hPa | 0 mm | - | 403 W/m² | - |
| 1778011831 | 27.22° C | 42% | 1017.9 hPa | 0 mm | - | 304 W/m² | - |
| 1778011528 | 26.67° C | 42% | 1017.8 hPa | 0 mm | - | 524 W/m² | - |
| 1778011225 | 26.67° C | 43% | 1017.7 hPa | 0 mm | - | 502 W/m² | - |
| 1778010921 | 26.67° C | 42% | 1017.9 hPa | 0 mm | - | 229 W/m² | - |
| 1778010618 | 27.78° C | 40% | 1017.7 hPa | 0 mm | - | 511 W/m² | - |
| 1778010316 | 27.78° C | 42% | 1018 hPa | 0 mm | - | 657 W/m² | - |
| 1778010011 | 26.67° C | 43% | 1018.3 hPa | 0 mm | - | 677 W/m² | - |
* Rain latest hour (hover to see other rain measurements)
** Current wind speed in m/s (hover to see current wind gust speed)